Weather History for Hutchinson, MN

Change the Weather History Date:

Saturday, November 5, 2011

  Actual Average Record
Temperature  
Mean Temperature 50 °F -  
Max Temperature 60 °F 45 °F 74 °F (1975)
Min Temperature 39 °F 28 °F 2 °F (1991)
Degree Days  
Heating Degree Days 16    
Moisture  
Dew Point 38 °F    
Average Humidity 70    
Maximum Humidity 86    
Minimum Humidity 44    
Precipitation  
Precipitation 0.00 in - - ()
Sea Level Pressure  
Sea Level Pressure 29.79 in    
Wind  
Wind Speed 12 mph (SE)    
Max Wind Speed 24 mph    
Max Gust Speed 36 mph    
Visibility 10 miles    
Events      
Averages and records for this station are not official NWS values.
T = Trace of Precipitation, MM = Missing Value Source: NWS Daily Summary

Daily Weather History Graph

Daily Weather History Graph

Search for Another Location

Airport:

Trip Planner

Search our weather history database for the weather conditions in past years. The results will help you decide how hot, cold, wet, or windy it might be!

Date:

Astronomy

Nov. 05, 2011 Rise Set
Actual Time 8:00 AM CDT 6:00 PM CDT
Civil Twilight 7:30 AM CDT 6:31 PM CDT
Nautical Twilight 6:55 AM CDT 7:06 PM CDT
Astronomical Twilight 6:21 AM CDT 7:40 PM CDT
Moon 3:28 PM CDT (11/5) 3:00 AM CDT (11/5)
Length of Visible Light 11h 01m
Length of Day
9h 59m
Waxing Gibbous, 78% of the Moon is Illuminated
Nov 5
Waxing Gibbous
Nov 10
Full
Nov 18
Last Quarter
Nov 25
New
Dec 2
First Quarter

Hourly Weather History & Observations

Time (CDT) Temp. Windchill Dew Point Humidity Pressure Visibility Wind Dir Wind Speed Gust Speed Precip Events Conditions
12:13 AM 40.6 °F 36.7 °F 32.2 °F 72% 30.01 in 10.0 mi SSE 5.8 mph - N/A   Clear
12:33 AM 40.6 °F 36.0 °F 32.4 °F 72% 30.00 in 10.0 mi SSE 6.9 mph - N/A   Clear
12:53 AM 40.5 °F 36.5 °F 32.5 °F 73% 30.00 in 10.0 mi SSE 5.8 mph - N/A   Clear
1:12 AM 40.1 °F 34.1 °F 32.0 °F 73% 29.99 in 10.0 mi SE 9.2 mph - N/A   Clear
1:33 AM 39.9 °F 33.9 °F 32.0 °F 73% 29.98 in 10.0 mi SSE 9.2 mph - N/A   Clear
1:52 AM 40.1 °F 35.3 °F 32.0 °F 73% 29.98 in 10.0 mi SSE 6.9 mph - N/A   Clear
2:52 AM 40.6 °F 36.7 °F 32.2 °F 72% 29.96 in 10.0 mi SSE 5.8 mph - N/A   Clear
3:12 AM 40.5 °F 35.1 °F 32.4 °F 73% 29.96 in 10.0 mi SE 8.1 mph - N/A   Clear
3:33 AM 40.6 °F 34.8 °F 32.5 °F 73% 29.95 in 10.0 mi SSE 9.2 mph - N/A   Clear
3:52 AM 40.5 °F 34.6 °F 32.5 °F 73% 29.95 in 10.0 mi SE 9.2 mph - N/A   Clear
4:32 AM 39.4 °F 33.8 °F 32.0 °F 75% 29.94 in 10.0 mi SE 8.1 mph - N/A   Clear
4:53 AM 39.4 °F 33.2 °F 32.2 °F 75% 29.93 in 10.0 mi SSE 9.2 mph - N/A   Clear
5:13 AM 39.6 °F 32.5 °F 32.5 °F 76% 29.92 in 10.0 mi SE 11.5 mph 16.1 mph N/A   Clear
5:33 AM 39.4 °F 33.2 °F 32.9 °F 78% 29.91 in 10.0 mi SSE 9.2 mph 17.3 mph N/A   Clear
5:52 AM 39.4 °F 33.2 °F 33.3 °F 79% 29.91 in 10.0 mi SE 9.2 mph - N/A   Clear
6:12 AM 39.4 °F 32.3 °F 33.8 °F 80% 29.91 in 10.0 mi SE 11.5 mph - N/A   Clear
6:33 AM 39.4 °F 31.8 °F 34.0 °F 81% 29.89 in 10.0 mi SE 12.7 mph - N/A   Clear
7:13 AM 39.4 °F 31.8 °F 34.9 °F 84% 29.88 in 10.0 mi SE 12.7 mph 18.4 mph N/A   Clear
7:32 AM 39.4 °F 31.8 °F 35.1 °F 84% 29.88 in 10.0 mi SE 12.7 mph - N/A   Clear
7:52 AM 39.4 °F 31.8 °F 35.6 °F 86% 29.87 in 10.0 mi SE 12.7 mph 18.4 mph N/A   Clear
8:13 AM 39.4 °F 31.4 °F 35.6 °F 86% 29.87 in 10.0 mi SE 13.8 mph 17.3 mph N/A   Clear
8:33 AM 39.6 °F 32.1 °F 35.8 °F 86% 29.86 in 10.0 mi SE 12.7 mph - N/A   Clear
8:53 AM 40.6 °F 33.0 °F 36.1 °F 84% 29.86 in 10.0 mi SE 13.8 mph 18.4 mph N/A   Clear
9:12 AM 41.4 °F 33.3 °F 36.9 °F 84% 29.85 in 10.0 mi SE 16.1 mph 20.7 mph N/A   Clear
9:33 AM 42.8 °F 35.1 °F 37.4 °F 81% 29.85 in 10.0 mi SE 16.1 mph 23.0 mph N/A   Clear
9:53 AM 43.9 °F 36.8 °F 37.8 °F 79% 29.85 in 10.0 mi SE 15.0 mph 21.9 mph N/A   Clear
10:32 AM 49.5 °F - 41.2 °F 73% 29.83 in 10.0 mi SSE 15.0 mph 25.3 mph N/A   Clear
10:53 AM 49.5 °F - 41.4 °F 74% 29.82 in 10.0 mi SSE 16.1 mph 25.3 mph N/A   Clear
11:13 AM 51.1 °F - 40.3 °F 67% 29.82 in 10.0 mi SSE 16.1 mph 24.2 mph N/A   Clear
11:53 AM 54.5 °F - 42.1 °F 63% 29.81 in 10.0 mi SSE 15.0 mph 24.2 mph N/A   Clear
12:12 PM 54.5 °F - 41.0 °F 60% 29.79 in 10.0 mi SSE 17.3 mph 25.3 mph N/A   Clear
12:53 PM 57.2 °F - 40.6 °F 54% 29.77 in 10.0 mi SSE 17.3 mph 24.2 mph N/A   Clear
1:13 PM 59.4 °F - 40.1 °F 49% 29.76 in 10.0 mi SSE 12.7 mph 25.3 mph N/A   Clear
1:32 PM 59.5 °F - 39.7 °F 48% 29.76 in 10.0 mi SSE 13.8 mph 25.3 mph N/A   Clear
1:52 PM 59.5 °F - 37.4 °F 44% 29.74 in 10.0 mi SSE 16.1 mph 25.3 mph N/A   Clear
2:13 PM 60.3 °F - 37.9 °F 44% 29.73 in 10.0 mi SSE 15.0 mph 27.6 mph N/A   Clear
2:33 PM 60.1 °F - 38.1 °F 44% 29.72 in 10.0 mi SSE 16.1 mph 24.2 mph N/A   Clear
2:52 PM 60.8 °F - 38.7 °F 44% 29.72 in 10.0 mi SSE 18.4 mph 27.6 mph N/A   Clear
3:13 PM 59.5 °F - 38.8 °F 46% 29.72 in 10.0 mi SSE 18.4 mph 28.8 mph N/A   Clear
3:33 PM 59.5 °F - 40.1 °F 49% 29.71 in 10.0 mi SSE 17.3 mph 25.3 mph N/A   Clear
3:52 PM 59.5 °F - 40.6 °F 50% 29.70 in 10.0 mi SSE 16.1 mph 25.3 mph N/A   Clear
4:12 PM 59.5 °F - 41.0 °F 50% 29.70 in 10.0 mi SSE 18.4 mph 27.6 mph N/A   Clear
4:33 PM 57.2 °F - 40.6 °F 54% 29.69 in 10.0 mi SE 19.6 mph 28.8 mph N/A   Clear
4:53 PM 57.2 °F - 42.3 °F 57% 29.69 in 10.0 mi SSE 15.0 mph 27.6 mph N/A   Clear
5:13 PM 57.2 °F - 43.0 °F 59% 29.68 in 10.0 mi SE 17.3 mph 27.6 mph N/A   Clear
5:33 PM 55.0 °F - 42.1 °F 62% 29.67 in 10.0 mi SE 20.7 mph 33.4 mph N/A   Clear
5:53 PM 54.5 °F - 41.9 °F 62% 29.67 in 10.0 mi SE 16.1 mph 31.1 mph N/A   Clear
6:13 PM 54.5 °F - 43.2 °F 66% 29.67 in 10.0 mi SE 19.6 mph 28.8 mph N/A   Clear
6:33 PM 54.5 °F - 43.7 °F 67% 29.67 in 10.0 mi SE 23.0 mph 32.2 mph N/A   Clear
6:53 PM 52.0 °F - 42.8 °F 71% 29.67 in 10.0 mi SE 21.9 mph 33.4 mph N/A   Clear
7:13 PM 49.6 °F - 41.4 °F 73% 29.67 in 10.0 mi SE 21.9 mph 28.8 mph N/A   Clear
7:33 PM 49.5 °F - 41.9 °F 75% 29.65 in 10.0 mi SE 20.7 mph 29.9 mph N/A   Scattered Clouds
7:52 PM 49.5 °F - 42.1 °F 76% 29.65 in 10.0 mi SE 20.7 mph 31.1 mph N/A   Clear
8:13 PM 49.5 °F - 42.8 °F 78% 29.64 in 10.0 mi SE 24.2 mph 31.1 mph N/A   Scattered Clouds
8:33 PM 49.5 °F - 43.0 °F 78% 29.64 in 10.0 mi SE 23.0 mph 35.7 mph N/A   Scattered Clouds
8:53 PM 49.5 °F - 43.0 °F 78% 29.63 in 10.0 mi SE 20.7 mph 32.2 mph N/A   Scattered Clouds
9:12 PM 49.5 °F - 43.2 °F 79% 29.66 in 10.0 mi SSE 13.8 mph 26.5 mph N/A   Mostly Cloudy
9:33 PM 49.5 °F - 43.3 °F 79% 29.67 in 10.0 mi SSE 12.7 mph 19.6 mph N/A   Overcast
9:53 PM 49.5 °F - 43.2 °F 79% 29.66 in 10.0 mi SSE 15.0 mph 28.8 mph N/A   Overcast
10:12 PM 49.5 °F - 43.3 °F 79% 29.66 in 10.0 mi SSE 16.1 mph 25.3 mph N/A   Overcast
10:32 PM 49.5 °F - 43.3 °F 79% 29.66 in 10.0 mi SSE 16.1 mph 23.0 mph N/A   Overcast
10:53 PM 49.5 °F - 43.2 °F 79% 29.68 in 10.0 mi SSE 11.5 mph 21.9 mph N/A   Overcast
11:13 PM 49.5 °F - 43.3 °F 79% 29.68 in 10.0 mi SSE 11.5 mph 19.6 mph N/A   Overcast
11:32 PM 49.5 °F - 43.3 °F 79% 29.67 in 10.0 mi SSE 12.7 mph 21.9 mph N/A   Mostly Cloudy
11:52 PM 49.5 °F - 43.3 °F 79% 29.67 in 10.0 mi SSE 10.4 mph 20.7 mph N/A   Scattered Clouds